CW8399 Weather Reports


Display with metric or nautical units.
time (UTC)temp
F
wind
direction
speed
MPH
gust
MPH
rain 1hr
in
rain 24hr
in
rain mn
in
humidity
%
barometer
mb
20260510015012 98 0 2.0 9.0 0.00 0.00 0.00
20260510014008 99 357 7.0 14.0 0.00 0.00 0.00
20260510013509 99 0 4.0 10.0 0.00 0.00 0.00
20260510013009 99 351 3.0 10.0 0.00 0.00 0.00
20260510012511 99 359 5.0 9.0 0.00 0.00 0.00
20260510011520 100 0 6.0 11.0 0.00 0.00 0.00
20260510011013 100 349 5.0 10.0 0.00 0.00 0.00
20260510010514 100 0 4.0 11.0 0.00 0.00 0.00
20260510010017 100 344 6.0 13.0 0.00 0.00 0.00
20260510005458 100 0 5.0 13.0 0.00 0.00 0.00
20260510005002 100 359 6.0 10.0 0.00 0.00 0.00
20260510004525 100 359 6.0 10.0 0.00 0.00 0.00
20260510003515 100 0 6.0 14.0 0.00 0.00 0.00
20260510003015 100 0 7.0 14.0 0.00 0.00 0.00
20260510002457 100 352 7.0 12.0 0.00 0.00 0.00
20260510001524 100 359 7.0 14.0 0.00 0.00 0.00
20260510001014 100 359 8.0 14.0 0.00 0.00 0.00
20260509235501 100 0 8.0 14.0 0.00 0.00 0.00
20260509235023 100 358 7.0 19.0 0.00 0.00 0.00
20260509234457 100 359 13.0 19.0 0.00 0.00 0.00
20260509233957 100 358 8.0 13.0 0.00 0.00 0.00
20260509233458 100 357 5.0 12.0 0.00 0.00 0.00
20260509232503 100 352 4.0 18.0 0.00 0.00 0.00
20260509231501 101 357 5.0 15.0 0.00 0.00 0.00
20260509231005 101 350 6.0 12.0 0.00 0.00 0.00
20260509230506 101 0 6.0 18.0 0.00 0.00 0.00
20260509230006 101 356 4.0 18.0 0.00 0.00 0.00
20260509225009 101 359 9.0 17.0 0.00 0.00 0.00
20260509224459 101 357 1.0 14.0 0.00 0.00 0.00
20260509223957 101 351 5.0 15.0 0.00 0.00 0.00
20260509223458 101 334 5.0 15.0 0.00 0.00 0.00
20260509222502 101 275 3.0 12.0 0.00 0.00 0.00
20260509221457 101 355 7.0 9.0 0.00 0.00 0.00
20260509220957 101 258 2.0 7.0 0.00 0.00 0.00
20260509220002 101 0 4.0 9.0 0.00 0.00 0.00
20260509215503 101 342 1.0 8.0 0.00 0.00 0.00
20260509215007 101 348 4.0 9.0 0.00 0.00 0.00
20260509214459 101 355 3.0 9.0 0.00 0.00 0.00
20260509214018 101 354 5.0 14.0 0.00 0.00 0.00
20260509213456 101 346 8.0 14.0 0.00 0.00 0.00
20260509212502 101 266 6.0 13.0 0.00 0.00 0.00
20260509212023 101 357 1.0 13.0 0.00 0.00 0.00
20260509211000 101 0 6.0 13.0 0.00 0.00 0.00
20260509210503 100 359 5.0 9.0 0.00 0.00 0.00
20260509205013 100 345 1.0 5.0 0.00 0.00 0.00
20260509204505 100 285 3.0 5.0 0.00 0.00 0.00
20260509204004 100 354 1.0 9.0 0.00 0.00 0.00
20260509203507 100 358 3.0 9.0 0.00 0.00 0.00
20260509203008 100 0 2.0 4.0 0.00 0.00 0.00
20260509202511 100 0 1.0 7.0 0.00 0.00 0.00
20260509202012 100 0 2.0 8.0 0.00 0.00 0.00
20260509201005 100 19 4.0 8.0 0.00 0.00 0.00
20260509200507 100 0 1.0 10.0 0.00 0.00 0.00
20260509200005 100 313 5.0 11.0 0.00 0.00 0.00
20260509195508 100 347 6.0 11.0 0.00 0.00 0.00
20260509195011 100 340 5.0 10.0 0.00 0.00 0.00
20260509194504 99 12 4.0 7.0 0.00 0.00 0.00
20260509194004 99 283 1.0 4.0 0.00 0.00 0.00
20260509193504 99 278 1.0 5.0 0.00 0.00 0.00
20260509192510 99 0 4.0 11.0 0.00 0.00 0.00
20260509192011 98 352 5.0 11.0 0.00 0.00 0.00
20260509191506 98 309 5.0 11.0 0.00 0.00 0.00
20260509191008 98 358 4.0 9.0 0.00 0.00 0.00
20260509190507 98 1 4.0 7.0 0.00 0.00 0.00
20260509185511 97 0 1.0 10.0 0.00 0.00 0.00
20260509185011 97 329 3.0 12.0 0.00 0.00 0.00
20260509184506 97 299 4.0 15.0 0.00 0.00 0.00
20260509184009 97 352 6.0 12.0 0.00 0.00 0.00
20260509183509 96 357 6.0 10.0 0.00 0.00 0.00
20260509183011 96 20 4.0 8.0 0.00 0.00 0.00
20260509182514 96 339 2.0 7.0 0.00 0.00 0.00
20260509182017 95 349 3.0 6.0 0.00 0.00 0.00
20260509181508 95 354 1.0 11.0 0.00 0.00 0.00
20260509180512 95 0 1.0 10.0 0.00 0.00 0.00
20260509175959 94 351 4.0 8.0 0.00 0.00 0.00
20260509175503 94 0 3.0 8.0 0.00 0.00 0.00
20260509175023 94 269 3.0 8.0 0.00 0.00 0.00
20260509174515 94 290 4.0 7.0 0.00 0.00 0.00
20260509173516 93 354 3.0 11.0 0.00 0.00 0.00
20260509173016 93 11 3.0 11.0 0.00 0.00 0.00
20260509172020 92 289 3.0 7.0 0.00 0.00 0.00
20260509171013 92 0 2.0 8.0 0.00 0.00 0.00
20260509170512 91 318 4.0 8.0 0.00 0.00 0.00
20260509165517 90 331 2.0 6.0 0.00 0.00 0.00
20260509164514 90 346 3.0 6.0 0.00 0.00 0.00
20260509163957 89 219 3.0 5.0 0.00 0.00 0.00
20260509163518 88 232 2.0 6.0 0.00 0.00 0.00
20260509163000 88 297 4.0 6.0 0.00 0.00 0.00
20260509162459 87 0 2.0 3.0 0.00 0.00 0.00
20260509162019 87 0 1.0 3.0 0.00 0.00 0.00
20260509161511 86 0 1.0 6.0 0.00 0.00 0.00
20260509161010 86 0 3.0 7.0 0.00 0.00 0.00
20260509160511 86 0 4.0 7.0 0.00 0.00 0.00
20260509155019 85 0 2.0 9.0 0.00 0.00 0.00
20260509154012 84 353 5.0 10.0 0.00 0.00 0.00
20260509153516 83 359 5.0 11.0 0.00 0.00 0.00
20260509153017 83 0 6.0 11.0 0.00 0.00 0.00
20260509152458 82 0 6.0 10.0 0.00 0.00 0.00
20260509151958 82 0 5.0 9.0 0.00 0.00 0.00
20260509151520 81 0 2.0 7.0 0.00 0.00 0.00
20260509151012 80 9 2.0 5.0 0.00 0.00 0.00
20260509150456 80 237 0.0 4.0 0.00 0.00 0.00
20260509145959 79 358 1.0 4.0 0.00 0.00 0.00
20260509145024 78 231 0.0 2.0 0.00 0.00 0.00
20260509144516 77 163 0.0 1.0 0.00 0.00 0.00
20260509144015 77 189 0.0 2.0 0.00 0.00 0.00
20260509143001 76 216 0.0 1.0 0.00 0.00 0.00
20260509142008 75 218 0.0 2.0 0.00 0.00 0.00
20260509141500 75 236 0.0 2.0 0.00 0.00 0.00
20260509140958 75 277 0.0 2.0 0.00 0.00 0.00
20260509140459 75 210 0.0 2.0 0.00 0.00 0.00
20260509140000 74 221 0.0 3.0 0.00 0.00 0.00
20260509135502 74 187 0.0 3.0 0.00 0.00 0.00
20260509135009 74 276 1.0 3.0 0.00 0.00 0.00
20260509134500 74 327 0.0 4.0 0.00 0.00 0.00
20260509134002 74 150 1.0 5.0 0.00 0.00 0.00
20260509133500 74 358 2.0 5.0 0.00 0.00 0.00
20260509133000 74 311 3.0 7.0 0.00 0.00 0.00
20260509132005 74 0 3.0 5.0 0.00 0.00 0.00
20260509131523 74 0 1.0 4.0 0.00 0.00 0.00
20260509130518 74 0 0.0 3.0 0.00 0.00 0.00
20260509125959 73 0 0.0 3.0 0.00 0.00 0.00
20260509125501 73 0 1.0 3.0 0.00 0.00 0.00
20260509125003 73 0 1.0 2.0 0.00 0.00 0.00
20260509124525 73 0 0.0 1.0 0.00 0.00 0.00
20260509123957 73 0 0.0 2.0 0.00 0.00 0.00
20260509123503 73 0 0.0 2.0 0.00 0.00 0.00
20260509122506 73 0 0.0 3.0 0.00 0.00 0.00
20260509122009 73 0 0.0 3.0 0.00 0.00 0.00
20260509121003 74 0 2.0 3.0 0.00 0.00 0.00
20260509120504 74 0 1.0 2.0 0.00 0.00 0.00
20260509120005 74 0 0.0 1.0 0.00 0.00 0.00
20260509115509 74 0 0.0 1.0 0.00 0.00 0.00
20260509115009 74 0 0.0 1.0 0.00 0.00 0.00
20260509114503 74 0 0.0 2.0 0.00 0.00 0.00
20260509114002 75 0 0.0 2.0 0.00 0.00 0.00
20260509113503 75 0 0.0 6.0 0.00 0.00 0.00
20260509112508 74 0 0.0 3.0 0.00 0.00 0.00
20260509112009 75 0 0.0 1.0 0.00 0.00 0.00
20260509111503 75 0 0.0 2.0 0.00 0.00 0.00
20260509111007 75 0 0.0 4.0 0.00 0.00 0.00
20260509110501 75 0 1.0 4.0 0.00 0.00 0.00
20260509110003 75 0 0.0 5.0 0.00 0.00 0.00
20260509105504 75 0 0.0 5.0 0.00 0.00 0.00
20260509105024 74 0 0.0 4.0 0.00 0.00 0.00
20260509104516 74 306 0.0 1.0 0.00 0.00 0.00
20260509104017 74 0 0.0 1.0 0.00 0.00 0.00
20260509103500 75 0 0.0 1.0 0.00 0.00 0.00
20260509103002 75 0 0.0 1.0 0.00 0.00 0.00
20260509102500 75 0 0.0 1.0 0.00 0.00 0.00
20260509102001 75 253 0.0 1.0 0.00 0.00 0.00
20260509101521 75 0 0.0 1.0 0.00 0.00 0.00
20260509100958 75 314 0.0 1.0 0.00 0.00 0.00
20260509100458 75 0 0.0 1.0 0.00 0.00 0.00
20260509095958 76 0 0.0 0.0 0.00 0.00 0.00
20260509095500 76 0 0.0 0.0 0.00 0.00 0.00
20260509095000 76 0 0.0 1.0 0.00 0.00 0.00
20260509094014 77 0 0.0 2.0 0.00 0.00 0.00
20260509093514 77 0 0.0 2.0 0.00 0.00 0.00
20260509093014 77 0 0.0 2.0 0.00 0.00 0.00
20260509092515 77 0 0.0 3.0 0.00 0.00 0.00
20260509092017 77 283 1.0 3.0 0.00 0.00 0.00
20260509091509 77 0 0.0 1.0 0.00 0.00 0.00
20260509091008 78 0 0.0 1.0 0.00 0.00 0.00
20260509090511 78 301 0.0 1.0 0.00 0.00 0.00
20260509085957 78 303 0.0 1.0 0.00 0.00 0.00
20260509085517 78 229 1.0 1.0 0.00 0.00 0.00
20260509084522 79 232 0.0 1.0 0.00 0.00 0.00
20260509084013 80 234 0.0 1.0 0.00 0.00 0.00
20260509082958 80 221 0.0 1.0 0.00 0.00 0.00
20260509082459 80 232 0.0 1.0 0.00 0.00 0.00
20260509081959 81 241 0.0 0.0 0.00 0.00 0.00
20260509081521 81 241 0.0 0.0 0.00 0.00 0.00
20260509081010 82 241 0.0 2.0 0.00 0.00 0.00
20260509080511 82 248 0.0 8.0 0.00 0.00 0.00
20260509080013 83 359 2.0 8.0 0.00 0.00 0.00
20260509075515 83 0 4.0 7.0 0.00 0.00 0.00
20260509075017 83 0 2.0 4.0 0.00 0.00 0.00
20260509074519 83 0 0.0 4.0 0.00 0.00 0.00
20260509074015 83 0 2.0 6.0 0.00 0.00 0.00
20260509073518 84 0 3.0 6.0 0.00 0.00 0.00
20260509072501 83 358 3.0 8.0 0.00 0.00 0.00
20260509072004 83 355 2.0 8.0 0.00 0.00 0.00
20260509071525 83 359 2.0 8.0 0.00 0.00 0.00
20260509071017 83 0 2.0 7.0 0.00 0.00 0.00
20260509070459 83 356 4.0 7.0 0.00 0.00 0.00
20260509065504 82 0 2.0 6.0 0.00 0.00 0.00
20260509064459 83 325 1.0 2.0 0.00 0.00 0.00
20260509063503 83 0 1.0 3.0 0.00 0.00 0.00
20260509063005 83 334 0.0 3.0 0.00 0.00 0.00
20260509062504 84 0 1.0 3.0 0.00 0.00 0.00
20260509062009 84 0 0.0 2.0 0.00 0.00 0.00
20260509061502 84 0 0.0 2.0 0.00 0.00 0.00
20260509061003 84 0 0.0 2.0 0.00 0.00 0.00
20260509060505 85 358 0.0 2.0 0.00 0.00 0.00
20260509060005 85 0 1.0 3.0 0.00 0.00 0.00
20260509055508 85 0 1.0 3.0 0.00 0.00 0.00
20260509055008 85 0 1.0 4.0 0.00 0.00 0.00
20260509054459 85 359 1.0 4.0 0.00 0.00 0.00
20260509053959 85 0 1.0 6.0 0.00 0.00 0.00
20260509053502 85 0 2.0 6.0 0.00 0.00 0.00
20260509053002 85 0 2.0 5.0 0.00 0.00 0.00
20260509052009 86 0 2.0 3.0 0.00 0.00 0.00
20260509051459 86 0 1.0 3.0 0.00 0.00 0.00
20260509051006 86 0 1.0 2.0 0.00 0.00 0.00
20260509050507 86 0 0.0 2.0 0.00 0.00 0.00
20260509050005 86 0 0.0 2.0 0.00 0.00 0.00
20260509045506 87 331 0.0 3.0 0.00 0.00 0.00
20260509045027 87 0 0.0 3.0 0.00 0.00 0.00
20260509044500 87 0 1.0 4.0 0.00 0.00 0.00
20260509044002 87 0 0.0 4.0 0.00 0.00 0.00
20260509043506 88 0 1.0 3.0 0.00 0.00 0.00
20260509043007 88 0 1.0 3.0 0.00 0.00 0.00
20260509042508 88 0 1.0 2.0 0.00 0.00 0.00
20260509042006 89 0 0.0 2.0 0.00 0.00 0.00
20260509041525 89 0 0.0 2.0 0.00 0.00 0.00
20260509040959 89 0 1.0 2.0 0.00 0.00 0.00
20260509040505 90 0 1.0 2.0 0.00 0.00 0.00
20260509040006 90 0 1.0 3.0 0.00 0.00 0.00
20260509035505 90 0 0.0 4.0 0.00 0.00 0.00
20260509035006 90 0 0.0 4.0 0.00 0.00 0.00
20260509034457 91 0 1.0 4.0 0.00 0.00 0.00
20260509034001 91 0 1.0 4.0 0.00 0.00 0.00
20260509033502 91 242 1.0 4.0 0.00 0.00 0.00
20260509033002 92 0 0.0 6.0 0.00 0.00 0.00
20260509032503 92 0 1.0 6.0 0.00 0.00 0.00
20260509032003 92 0 1.0 4.0 0.00 0.00 0.00
20260509031527 93 0 1.0 4.0 0.00 0.00 0.00
20260509031018 93 354 2.0 6.0 0.00 0.00 0.00
20260509030500 93 0 2.0 6.0 0.00 0.00 0.00
20260509030005 94 356 4.0 7.0 0.00 0.00 0.00
20260509025504 94 0 3.0 7.0 0.00 0.00 0.00
20260509025007 94 0 2.0 6.0 0.00 0.00 0.00
20260509024459 94 353 3.0 6.0 0.00 0.00 0.00
20260509023959 95 0 1.0 7.0 0.00 0.00 0.00
20260509023004 95 0 2.0 8.0 0.00 0.00 0.00
20260509022009 96 0 6.0 9.0 0.00 0.00 0.00
20260509021003 96 0 3.0 8.0 0.00 0.00 0.00
20260509020502 96 0 1.0 8.0 0.00 0.00 0.00
20260509020006 97 359 3.0 10.0 0.00 0.00 0.00